Helicity
259 173 138 263 255 244 226 180 151 157 165 141 134 131 96 115 98 85 83 80 71 63 52 41 35 24 0 -5 -33 -46 -17 0
268 259 182 347 256 223 201 180 170 159 147 134 151 137 114 117 100 102 83 84 79 62 57 55 46 20 9 -16 -44 -59 -12 11
459 574 451 358 486 215 165 109 85 124 120 95 97 83 73 82 91 99 113 97 79 65 65 59 39 30 17 -23 -21 -18 -7 29
472 464 613 561 405 203 89 41 16 68 59 32 51 71 55 64 80 114 112 97 77 73 42 -2 -33 20 20 -16 4 -8 13 52
440 389 359 184 312 222 398 239 95 11 50 14 30 87 71 58 73 65 61 52 48 39 18 9 56 56 33 23 9 1 12 56
378 442 492 217 287 513 535 406 150 29 35 26 57 49 52 61 48 43 31 25 27 33 62 54 62 46 40 27 18 25 40 53
359 425 370 416 628 556 381 227 102 -68 11 8 21 49 51 27 38 35 25 39 36 71 79 56 51 36 31 35 39 34 33 49
428 288 91 123 174 44 38 7 -110 -127 -54 -10 18 39 57 45 47 36 58 47 66 68 76 56 43 48 47 53 49 45 55 46
59 34 16 1 -43 -142 -136 -100 -66 -51 -27 3 -6 -11 47 53 55 58 63 72 85 94 82 67 52 62 69 56 59 55 69 52
87 16 -77 -130 -118 -59 -67 -35 24 4 -27 -47 -36 90 66 64 79 90 68 101 97 101 76 65 74 70 77 76 75 68 63 45
-115 -84 -36 -16 -19 20 16 -4 -7 -45 -63 -45 12 60 51 59 61 52 102 101 120 91 94 75 94 82 96 81 77 82 96 86
20 40 36 23 -6 -13 -29 -48 -50 -51 -31 19 38 55 56 33 50 96 90 119 106 106 115 113 100 115 95 102 104 86 113 102
32 42 22 -6 -22 -29 -34 -28 -27 -24 20 36 44 39 39 42 65 94 81 109 115 130 135 144 129 118 84 66 83 101 85 72
16 5 6 -15 -20 -24 -28 -15 1 5 51 35 37 49 57 56 81 110 102 113 130 140 140 133 126 121 103 107 88 188 127 72
1 1 -6 -13 -24 -18 -14 -7 1 17 58 65 63 60 64 67 103 128 121 118 147 137 138 130 144 146 133 140 123 111 133 97
10 0 -7 2 -24 11 12 19 32 35 75 59 52 57 79 85 111 117 147 146 154 151 131 148 142 222 151 110 101 152 130 143
17 7 3 22 44 8 42 29 48 56 117 93 112 99 82 137 127 143 149 179 174 180 160 153 193 190 195 161 111 89 74 79
29 30 36 38 73 61 52 65 43 62 159 164 147 146 147 173 164 225 199 151 187 177 197 229 223 227 188 129 78 93 108 106
50 53 52 79 81 86 76 78 68 65 138 114 219 183 193 208 204 271 266 169 178 202 253 285 232 225 167 112 57 84 110 140
65 67 68 89 96 91 78 71 92 108 67 96 167 171 166 186 232 283 271 186 217 287 401 264 232 201 174 134 113 124 171 180
Wind_Speed
10 24 24 20 17 16 16 16 16 17 19 25 26 30 28 28 26 22 20 20 20 24 26 29 34 38 42 46 44 43 45 43
18 11 13 17 19 17 14 17 19 20 21 25 23 26 24 25 26 22 15 17 20 22 25 29 34 38 41 43 41 44 44 42
13 16 28 23 14 12 15 16 29 19 22 28 23 18 22 20 15 15 16 15 16 20 25 30 33 39 41 41 38 42 42 43
12 16 14 27 24 21 15 17 34 20 18 27 23 12 10 15 10 10 11 12 17 21 26 29 30 35 37 38 42 42 43 43
13 19 25 24 16 23 15 9 22 23 14 21 15 4 6 7 2 6 12 13 15 21 25 28 36 38 38 40 41 41 41 42
13 19 15 22 14 12 12 16 22 10 8 6 6 3 4 9 5 6 8 13 16 20 27 30 35 35 36 38 40 42 42 41
17 18 17 11 7 10 18 20 19 18 10 12 9 12 12 26 7 7 8 14 15 21 24 28 31 33 34 36 39 41 41 38
21 21 12 13 13 12 11 6 17 21 9 9 22 50 41 18 8 7 12 12 16 18 22 25 27 29 33 37 39 39 40 38
36 26 29 32 23 29 13 7 20 19 9 63 66 61 11 7 8 9 9 12 16 18 21 24 24 29 33 34 35 37 37 37
23 39 48 42 26 39 35 35 67 67 66 64 60 29 12 9 8 9 8 13 13 15 17 21 24 26 31 33 35 36 35 36
43 42 36 45 50 64 61 61 62 61 56 42 10 12 6 9 3 6 6 9 11 12 17 18 23 25 28 32 34 34 33 34
56 57 57 62 62 59 57 52 51 43 27 4 5 8 7 5 4 6 4 8 10 13 17 19 21 27 31 35 35 36 35 36
60 59 58 54 50 46 45 42 42 32 2 7 3 4 3 3 6 6 3 10 12 13 16 18 24 29 34 34 35 33 36 38
52 49 44 43 39 36 32 30 23 14 1 5 6 8 8 7 9 7 5 11 9 11 13 20 24 28 36 43 49 44 40 35
48 42 39 34 33 22 15 12 6 8 1 7 10 9 10 10 13 10 10 13 12 12 16 19 25 27 36 45 50 50 52 40
45 39 35 27 22 16 16 10 9 3 8 11 13 12 15 14 17 17 18 18 17 16 15 20 26 29 34 41 40 43 50 53
39 36 30 21 16 17 10 7 5 6 10 13 13 19 16 18 21 28 24 19 22 23 18 20 24 30 37 45 44 41 40 48
31 32 29 23 17 18 15 12 12 8 13 16 22 24 25 29 26 20 21 20 23 19 19 21 25 31 38 41 44 46 49 49
34 31 30 25 22 18 20 18 17 13 11 15 27 31 28 29 25 26 23 25 24 21 22 24 28 35 37 42 43 45 50 56
33 30 29 27 25 26 20 20 13 12 15 14 14 20 24 24 24 25 28 30 23 22 24 26 27 33 41 47 47 51 56 55
Wind_Direction
220 217 197 172 161 160 154 143 131 122 111 105 104 98 92 87 80 75 67 64 56 52 43 37 29 26 24 24 18 7 17 21
104 214 209 154 176 159 147 131 123 121 116 110 104 98 93 86 79 74 69 62 54 47 38 30 30 29 23 21 19 5 7 18
83 111 120 144 146 195 130 125 107 122 122 111 105 102 96 79 71 71 63 49 38 39 33 34 34 29 21 16 20 357 7 10
113 124 138 140 131 145 146 118 117 120 136 113 101 109 87 86 74 57 45 36 33 34 41 49 48 31 21 18 1 3 6 15
124 127 128 133 158 130 120 123 116 121 160 111 117 119 95 77 25 13 35 25 10 37 43 24 358 356 357 359 9 11 10 11
109 117 124 146 174 141 134 137 115 151 180 131 189 195 223 257 304 321 358 25 44 35 11 10 358 357 5 12 12 5 8 14
113 119 121 160 204 142 134 132 127 134 152 224 215 239 255 241 309 349 8 354 21 11 21 5 6 10 15 14 12 13 15 15
105 118 141 136 152 158 153 159 119 125 202 208 243 214 229 268 313 348 334 7 13 21 15 17 17 20 15 13 12 13 10 9
106 104 107 115 124 122 138 162 134 134 167 197 188 194 272 320 325 333 8 12 14 11 13 10 19 13 11 14 14 12 12 14
114 117 118 117 126 129 132 133 180 180 177 176 181 256 289 317 334 335 46 5 21 21 20 13 10 10 6 9 8 7 9 6
116 121 119 133 136 165 186 187 181 171 164 149 137 273 302 312 33 91 27 35 25 23 8 8 3 5 5 1 1 360 0 0
129 140 147 154 160 168 163 157 161 152 143 239 253 285 299 320 339 338 65 15 5 1 352 358 358 355 351 349 352 353 354 351
155 153 158 152 149 146 149 150 154 149 187 279 249 276 251 173 313 331 349 338 339 347 349 351 346 347 344 346 343 345 345 347
152 151 144 147 143 142 141 144 143 146 262 284 274 283 286 271 288 302 304 326 332 338 339 337 338 344 338 338 339 342 339 339
161 155 151 145 146 131 123 127 130 152 191 296 286 278 275 264 276 287 293 308 315 317 322 326 331 337 336 335 336 336 341 343
164 159 157 149 147 138 149 148 159 231 293 305 296 280 282 275 281 284 289 295 302 306 314 320 324 323 332 333 336 336 336 337
166 168 166 160 161 168 173 196 237 286 288 294 279 293 279 284 287 289 286 286 295 299 308 314 325 327 327 328 332 331 330 329
174 176 177 176 177 183 192 199 208 233 294 298 293 292 289 285 291 279 281 280 291 295 305 311 322 328 329 327 328 328 328 328
178 180 184 186 191 197 196 202 203 227 272 286 293 290 288 282 278 279 276 280 288 294 302 310 318 323 325 326 326 324 325 324
183 187 191 190 190 190 195 198 222 267 254 278 280 293 293 290 277 279 279 282 285 299 309 313 322 323 319 320 320 321 321 325